Погода в Николаевке

Украина / Запорожская область     46°52′15″N   36°02′55″E
темп.,
°C
ветер,
м/с
пор.,
м/с
влажн.,
%
обл.,
%
осадки,
мм/ч
давл.,
гПа
погр.,
м
20 апреля, вт
вт2000:00+9всв1177100 0.0 101214
03:00+9в2381100 0.0 101065
06:00+8всв4693100 1.6 1007227
09:00+9в6119699 2.8 1005436
12:00+9ююв61298100 1.8 1004431
15:00+13ююз7118127 2.1 1003864
18:00+11зюз6886100 0.4 1003588
21:00+9з8148499 0.8 10081085
21 апреля, ср
ср2100:00+8зюз71389100 0.0 1010316
03:00+7зюз5109359 0.0 1012220
06:00+6зюз48915 0.0 1013181
09:00+11зюз57705 0.0 1015477
12:00+14юз675921 0.3 10161355
15:00+14ююз785910 0.6 10161123
18:00+13ююз69669 0.0 1017572
21:00+10юз36804 0.0 101997
22 апреля, чт
чт2200:00+9зюз34875 0.0 101951
03:00+8зюз22920 0.0 102024
06:00+7юз22920 0.0 102129
09:00+12юз34700 0.0 1022450
12:00+14ююз556218 0.0 1022958
15:00+14ююз555917 0.0 1022951
18:00+12ю45663 0.0 1022268
21:00+10ююз347735 0.0 102380
23 апреля, пт
пт2300:00+10юз22805 0.0 102320
03:00+9з11835 0.0 102210
06:00+9юз11840 0.0 102310
09:00+13ююз23630 0.0 1023419
12:00+15ю55530 0.0 1023861
15:00+14ю56580 0.0 1022634
18:00+13ююв46670 0.0 1020324
21:00+10ююв3684100 0.0 1020106
24 апреля, сб
сб2400:00+10ю51175100 0.0 1019251
03:00+9юз4687100 0.0 1017146
06:00+9юз3583100 0.0 1017113
09:00+10сз777895 0.0 1018600
12:00+12сз675589 0.0 10191061
15:00+14зсз684185 0.0 10181725
18:00+13сз89455 0.0 10191404
21:00+8сз49502 0.0 1022312